• In Kazakhstan
  • List of Countries
  • For 7 days
  • Water Temperature
  • Weather Map
  • News
  • Weather Widgets
  • user-avatar
    Login

    Hourly Weather Baraki Barak

    Today, 26 May, Tuesday

    Time Temperature Precipitation Wind Pressure Humidity
    00:00 +21°C° 0 mm 1 mps 600 mmHg 36%
    01:00 +21°C° 0 mm 1 mps 600 mmHg 39%
    02:00 +20°C° 0 mm 1 mps 599 mmHg 41%
    03:00 +19°C° 0 mm 1 mps 599 mmHg 42%
    04:00 +19°C° 0 mm 1 mps 599 mmHg 44%
    05:00 +19°C° 0 mm 1 mps 599 mmHg 45%
    06:00 +20°C° 0 mm 1 mps 599 mmHg 41%
    07:00 +21°C° 0 mm 1 mps 600 mmHg 37%
    08:00 +22°C° 0 mm 1 mps 600 mmHg 33%
    09:00 +23°C° 0 mm 1 mps 600 mmHg 30%
    10:00 +24°C° 0 mm 1 mps 601 mmHg 26%
    11:00 +25°C° 0 mm 1 mps 601 mmHg 22%
    12:00 +26°C° 0 mm 2 mps 601 mmHg 20%
    13:00 +27°C° 0 mm 2 mps 601 mmHg 17%
    14:00 +28°C° 0 mm 2 mps 601 mmHg 15%
    15:00 +28°C° 0 mm 3 mps 601 mmHg 15%
    16:00 +29°C° 0 mm 3 mps 601 mmHg 14%
    17:00 +29°C° 0 mm 4 mps 601 mmHg 14%
    18:00 +28°C° 0 mm 4 mps 601 mmHg 17%
    19:00 +26°C° 0 mm 4 mps 600 mmHg 20%
    20:00 +25°C° 0 mm 4 mps 600 mmHg 23%
    21:00 +24°C° 0 mm 3 mps 600 mmHg 26%
    22:00 +23°C° 0 mm 2 mps 600 mmHg 29%
    23:00 +21°C° 0 mm 2 mps 600 mmHg 32%

    Tomorrow, 27 May, Wednesday

    Time Temperature Precipitation Wind Pressure Humidity
    00:00 +22°C° 0 mm 1 mps 599 mmHg 33%
    01:00 +21°C° 0 mm 1 mps 599 mmHg 35%
    02:00 +21°C° 0 mm 1 mps 599 mmHg 36%
    03:00 +20°C° 0 mm 1 mps 598 mmHg 37%
    04:00 +19°C° 0 mm 1 mps 598 mmHg 39%
    05:00 +19°C° 0 mm 1 mps 597 mmHg 40%
    06:00 +20°C° 0 mm 1 mps 598 mmHg 37%
    07:00 +20°C° 0 mm 2 mps 599 mmHg 33%
    08:00 +21°C° 0 mm 2 mps 599 mmHg 30%
    09:00 +23°C° 0 mm 2 mps 599 mmHg 27%
    10:00 +24°C° 0 mm 2 mps 600 mmHg 24%
    11:00 +25°C° 0 mm 2 mps 600 mmHg 21%
    12:00 +26°C° 0 mm 2 mps 600 mmHg 19%
    13:00 +27°C° 0 mm 3 mps 600 mmHg 18%
    14:00 +28°C° 0 mm 3 mps 600 mmHg 16%
    15:00 +28°C° 0 mm 3 mps 600 mmHg 16%
    16:00 +28°C° 0 mm 3 mps 599 mmHg 16%
    17:00 +28°C° 0 mm 3 mps 599 mmHg 16%
    18:00 +27°C° 0 mm 4 mps 599 mmHg 19%
    19:00 +25°C° 0 mm 4 mps 599 mmHg 23%
    20:00 +23°C° 0 mm 5 mps 598 mmHg 26%
    21:00 +22°C° 0 mm 4 mps 598 mmHg 30%
    22:00 +21°C° 0 mm 4 mps 598 mmHg 33%
    23:00 +21°C° 0 mm 3 mps 598 mmHg 36%

    Day after tomorrow, 28 May, Thursday

    Time Temperature Precipitation Wind Pressure Humidity
    00:00 +20°C° 0 mm 3 mps 598 mmHg 39%
    01:00 +19°C° 0 mm 2 mps 597 mmHg 41%
    02:00 +19°C° 0 mm 2 mps 597 mmHg 44%
    03:00 +18°C° 0 mm 2 mps 597 mmHg 46%
    04:00 +19°C° 0 mm 1 mps 596 mmHg 48%
    05:00 +18°C° 0 mm 1 mps 596 mmHg 49%
    06:00 +18°C° 0 mm 2 mps 596 mmHg 45%
    07:00 +19°C° 0 mm 2 mps 597 mmHg 40%
    08:00 +20°C° 0 mm 2 mps 597 mmHg 36%
    09:00 +21°C° 0 mm 2 mps 598 mmHg 32%
    10:00 +23°C° 0 mm 2 mps 598 mmHg 28%
    11:00 +25°C° 0 mm 2 mps 598 mmHg 24%
    12:00 +26°C° 0 mm 2 mps 598 mmHg 22%
    13:00 +27°C° 0 mm 3 mps 598 mmHg 20%
    14:00 +28°C° 0 mm 3 mps 599 mmHg 18%
    15:00 +27°C° 0 mm 4 mps 598 mmHg 23%
    16:00 +24°C° 0 mm 6 mps 598 mmHg 29%
    17:00 +23°C° 0 mm 7 mps 597 mmHg 34%
    18:00 +22°C° 0.1 mm 6 mps 597 mmHg 38%
    19:00 +21°C° 0.1 mm 5 mps 597 mmHg 42%
    20:00 +20°C° 0.1 mm 4 mps 597 mmHg 46%
    21:00 +19°C° 0.1 mm 3 mps 597 mmHg 49%
    22:00 +18°C° 0.1 mm 3 mps 597 mmHg 52%
    23:00 +18°C° 0.1 mm 3 mps 597 mmHg 54%

    29 May, Friday

    Time Temperature Precipitation Wind Pressure Humidity
    00:00 +18°C° 0 mm 2 mps 597 mmHg 55%
    01:00 +19°C° 0 mm 1 mps 597 mmHg 56%
    02:00 +18°C° 0 mm 1 mps 596 mmHg 56%
    03:00 +18°C° 0 mm 1 mps 596 mmHg 56%
    04:00 +18°C° 0 mm 1 mps 596 mmHg 56%
    05:00 +18°C° 0 mm 1 mps 596 mmHg 56%
    06:00 +19°C° 0 mm 1 mps 596 mmHg 52%
    07:00 +20°C° 0 mm 1 mps 597 mmHg 48%
    08:00 +21°C° 0 mm 1 mps 597 mmHg 44%
    09:00 +22°C° 0 mm 1 mps 598 mmHg 39%
    10:00 +23°C° 0 mm 1 mps 598 mmHg 35%
    11:00 +25°C° 0 mm 2 mps 599 mmHg 30%
    12:00 +25°C° 0 mm 2 mps 599 mmHg 29%
    13:00 +26°C° 0 mm 2 mps 599 mmHg 27%
    14:00 +27°C° 0 mm 3 mps 599 mmHg 26%
    15:00 +25°C° 0.2 mm 3 mps 599 mmHg 32%
    16:00 +23°C° 0.2 mm 2 mps 598 mmHg 39%
    17:00 +21°C° 0.2 mm 2 mps 598 mmHg 45%
    18:00 +20°C° 0.4 mm 2 mps 598 mmHg 50%
    19:00 +19°C° 0.4 mm 2 mps 598 mmHg 56%
    20:00 +18°C° 0.4 mm 2 mps 598 mmHg 61%
    21:00 +17°C° 0.4 mm 2 mps 597 mmHg 62%
    22:00 +17°C° 0.4 mm 3 mps 597 mmHg 63%
    23:00 +15°C° 0.4 mm 4 mps 597 mmHg 65%

    30 May, Saturday

    Time Temperature Precipitation Wind Pressure Humidity
    00:00 +16°C° 0.1 mm 3 mps 597 mmHg 64%
    01:00 +16°C° 0.1 mm 2 mps 596 mmHg 63%
    02:00 +16°C° 0.1 mm 1 mps 596 mmHg 62%
    03:00 +16°C° 0 mm 1 mps 596 mmHg 63%
    04:00 +16°C° 0 mm 1 mps 596 mmHg 63%
    05:00 +16°C° 0 mm 1 mps 596 mmHg 64%
    06:00 +18°C° 0 mm 1 mps 596 mmHg 59%
    07:00 +19°C° 0 mm 1 mps 597 mmHg 55%
    08:00 +20°C° 0 mm 1 mps 598 mmHg 50%
    09:00 +21°C° 0 mm 1 mps 598 mmHg 44%
    10:00 +22°C° 0 mm 1 mps 599 mmHg 39%
    11:00 +23°C° 0 mm 2 mps 600 mmHg 34%
    12:00 +24°C° 0.1 mm 2 mps 599 mmHg 33%
    13:00 +24°C° 0.1 mm 2 mps 599 mmHg 32%
    14:00 +25°C° 0.1 mm 2 mps 599 mmHg 31%
    15:00 +25°C° 0.2 mm 2 mps 599 mmHg 34%
    16:00 +24°C° 0.2 mm 3 mps 599 mmHg 37%
    17:00 +24°C° 0.2 mm 3 mps 599 mmHg 39%
    18:00 +21°C° 0.5 mm 3 mps 598 mmHg 45%
    19:00 +20°C° 0.5 mm 3 mps 598 mmHg 50%
    20:00 +18°C° 0.5 mm 2 mps 598 mmHg 56%
    21:00 +18°C° 0 mm 2 mps 598 mmHg 56%
    22:00 +19°C° 0 mm 1 mps 598 mmHg 56%
    23:00 +17°C° 0 mm 0 mps 599 mmHg 56%

    31 May, Sunday

    Time Temperature Precipitation Wind Pressure Humidity
    00:00 +17°C° 0 mm 0 mps 598 mmHg 57%
    01:00 +17°C° 0 mm 0 mps 598 mmHg 59%
    02:00 +16°C° 0 mm 0 mps 597 mmHg 60%
    03:00 +16°C° 0 mm 0 mps 597 mmHg 61%
    04:00 +15°C° 0 mm 0 mps 597 mmHg 62%
    05:00 +15°C° 0 mm 0 mps 597 mmHg 62%
    06:00 +16°C° 0 mm 0 mps 598 mmHg 56%
    07:00 +19°C° 0 mm 1 mps 598 mmHg 49%
    08:00 +20°C° 0 mm 1 mps 599 mmHg 42%
    09:00 +21°C° 0 mm 1 mps 599 mmHg 37%
    10:00 +22°C° 0 mm 1 mps 600 mmHg 31%
    11:00 +24°C° 0 mm 1 mps 600 mmHg 25%
    12:00 +25°C° 0 mm 1 mps 600 mmHg 22%
    13:00 +26°C° 0 mm 1 mps 600 mmHg 19%
    14:00 +26°C° 0 mm 2 mps 600 mmHg 16%
    15:00 +27°C° 0 mm 2 mps 600 mmHg 16%
    16:00 +27°C° 0 mm 2 mps 600 mmHg 15%
    17:00 +28°C° 0 mm 2 mps 600 mmHg 15%
    18:00 +26°C° 0 mm 3 mps 600 mmHg 17%
    19:00 +25°C° 0 mm 4 mps 600 mmHg 20%
    20:00 +23°C° 0 mm 5 mps 599 mmHg 23%
    21:00 +22°C° 0 mm 4 mps 599 mmHg 26%
    22:00 +21°C° 0 mm 3 mps 599 mmHg 29%
    23:00 +21°C° 0 mm 2 mps 599 mmHg 32%
    Show more